TimeCDT,TemperatureF,Dew PointF,Humidity,Sea Level PressureIn,VisibilityMPH,Wind Direction,Wind SpeedMPH,Gust SpeedMPH,PrecipitationIn,Events,Conditions,WindDirDegrees,DateUTC
12:13 AM,66.2,55.4,68,29.91,10.0,NW,8.1,-,N/A,,Clear,310,2013-06-29 05:13:00
12:34 AM,64.4,55.4,73,29.92,10.0,NW,9.2,-,N/A,,Clear,320,2013-06-29 05:34:00
12:53 AM,64.4,55.4,73,29.91,10.0,NW,8.1,-,N/A,,Clear,320,2013-06-29 05:53:00
1:13 AM,66.2,53.6,64,29.91,10.0,NW,8.1,-,N/A,,Clear,320,2013-06-29 06:13:00
1:33 AM,64.4,53.6,68,29.90,10.0,NW,8.1,-,N/A,,Clear,320,2013-06-29 06:33:00
1:53 AM,64.4,53.6,68,29.90,10.0,NW,9.2,-,N/A,,Clear,320,2013-06-29 06:53:00
2:14 AM,64.4,53.6,68,29.91,10.0,NW,9.2,-,N/A,,Clear,320,2013-06-29 07:14:00
2:33 AM,64.4,55.4,73,29.91,10.0,NW,8.1,-,N/A,,Clear,310,2013-06-29 07:33:00
2:54 AM,62.6,55.4,77,29.90,10.0,NW,9.2,-,N/A,,Clear,310,2013-06-29 07:54:00
3:14 AM,62.6,55.4,77,29.90,10.0,NW,6.9,-,N/A,,Clear,310,2013-06-29 08:14:00
3:33 AM,62.6,55.4,77,29.90,10.0,NW,6.9,-,N/A,,Clear,310,2013-06-29 08:33:00
3:54 AM,62.6,55.4,77,29.90,10.0,NW,6.9,-,N/A,,Clear,310,2013-06-29 08:54:00
4:14 AM,62.6,55.4,77,29.91,10.0,NW,8.1,-,N/A,,Clear,310,2013-06-29 09:14:00
4:33 AM,62.6,55.4,77,29.91,10.0,NW,8.1,-,N/A,,Clear,310,2013-06-29 09:33:00
4:54 AM,62.6,55.4,77,29.91,10.0,NW,8.1,-,N/A,,Clear,310,2013-06-29 09:54:00
5:14 AM,60.8,55.4,82,29.91,10.0,NW,8.1,-,N/A,,Clear,310,2013-06-29 10:14:00
5:33 AM,62.6,55.4,77,29.92,10.0,NNW,8.1,-,N/A,,Clear,330,2013-06-29 10:33:00
5:54 AM,62.6,55.4,77,29.92,10.0,NNW,8.1,-,N/A,,Clear,330,2013-06-29 10:54:00
6:14 AM,62.6,55.4,77,29.92,10.0,NNW,9.2,-,N/A,,Clear,330,2013-06-29 11:14:00
6:33 AM,62.6,55.4,77,29.92,10.0,NNW,11.5,-,N/A,,Clear,330,2013-06-29 11:33:00
6:54 AM,64.4,55.4,73,29.93,10.0,NNW,10.4,-,N/A,,Clear,330,2013-06-29 11:54:00
7:13 AM,64.4,57.2,77,29.93,10.0,NNW,13.8,20.7,N/A,,Clear,340,2013-06-29 12:13:00
7:34 AM,64.4,57.2,77,29.92,10.0,NNW,15.0,24.2,N/A,,Clear,330,2013-06-29 12:34:00
7:54 AM,68.0,57.2,68,29.93,10.0,NNW,15.0,23.0,N/A,,Clear,340,2013-06-29 12:54:00
8:13 AM,68.0,57.2,68,29.93,10.0,NNW,19.6,25.3,N/A,,Clear,340,2013-06-29 13:13:00
8:34 AM,68.0,59.0,73,29.93,10.0,NNW,18.4,24.2,N/A,,Clear,340,2013-06-29 13:34:00
8:53 AM,68.0,57.2,68,29.94,10.0,North,20.7,25.3,N/A,,Scattered Clouds,350,2013-06-29 13:53:00
9:13 AM,68.0,57.2,68,29.94,10.0,North,20.7,29.9,N/A,,Mostly Cloudy,350,2013-06-29 14:13:00
9:34 AM,69.8,57.2,64,29.94,10.0,North,20.7,28.8,N/A,,Mostly Cloudy,350,2013-06-29 14:34:00
9:53 AM,69.8,57.2,64,29.95,10.0,North,18.4,26.5,N/A,,Mostly Cloudy,350,2013-06-29 14:53:00
10:13 AM,71.6,55.4,57,29.95,10.0,North,17.3,31.1,N/A,,Scattered Clouds,10,2013-06-29 15:13:00
10:34 AM,69.8,55.4,60,29.96,10.0,North,20.7,27.6,N/A,,Scattered Clouds,10,2013-06-29 15:34:00
10:53 AM,71.6,55.4,57,29.96,10.0,North,20.7,28.8,N/A,,Scattered Clouds,10,2013-06-29 15:53:00
11:13 AM,71.6,55.4,57,29.96,10.0,North,19.6,29.9,N/A,,Scattered Clouds,10,2013-06-29 16:13:00
11:34 AM,73.4,55.4,53,29.96,10.0,North,21.9,27.6,N/A,,Scattered Clouds,360,2013-06-29 16:34:00
11:53 AM,73.4,55.4,53,29.96,10.0,North,16.1,28.8,N/A,,Scattered Clouds,10,2013-06-29 16:53:00
12:14 PM,73.4,55.4,53,29.97,10.0,North,12.7,26.5,N/A,,Scattered Clouds,10,2013-06-29 17:14:00
12:34 PM,73.4,55.4,53,29.97,10.0,North,15.0,23.0,N/A,,Scattered Clouds,10,2013-06-29 17:34:00
12:53 PM,73.4,53.6,50,29.97,10.0,North,15.0,23.0,N/A,,Scattered Clouds,10,2013-06-29 17:53:00
1:14 PM,75.2,53.6,47,29.97,10.0,NNE,10.4,20.7,N/A,,Scattered Clouds,20,2013-06-29 18:14:00
1:34 PM,77.0,51.8,41,29.97,10.0,NNE,16.1,24.2,N/A,,Scattered Clouds,20,2013-06-29 18:34:00
1:53 PM,77.0,50.0,39,29.97,10.0,NNE,11.5,25.3,N/A,,Mostly Cloudy,30,2013-06-29 18:53:00
2:14 PM,77.0,51.8,41,29.97,10.0,North,15.0,24.2,N/A,,Scattered Clouds,10,2013-06-29 19:14:00
2:33 PM,75.2,51.8,44,29.97,10.0,North,15.0,27.6,N/A,,Mostly Cloudy,10,2013-06-29 19:33:00
2:53 PM,77.0,51.8,41,29.97,10.0,NNE,12.7,21.9,N/A,,Mostly Cloudy,20,2013-06-29 19:53:00
3:14 PM,77.0,50.0,39,29.97,10.0,North,13.8,18.4,N/A,,Scattered Clouds,350,2013-06-29 20:14:00
3:33 PM,77.0,50.0,39,29.97,10.0,NNE,10.4,17.3,N/A,,Scattered Clouds,20,2013-06-29 20:33:00
3:53 PM,77.0,51.8,41,29.96,10.0,North,10.4,20.7,N/A,,Scattered Clouds,350,2013-06-29 20:53:00
4:13 PM,78.8,50.0,36,29.96,10.0,North,12.7,18.4,N/A,,Scattered Clouds,10,2013-06-29 21:13:00
4:33 PM,78.8,48.2,34,29.96,10.0,North,12.7,23.0,N/A,,Scattered Clouds,10,2013-06-29 21:33:00
4:54 PM,78.8,50.0,36,29.96,10.0,North,13.8,20.7,N/A,,Mostly Cloudy,360,2013-06-29 21:54:00
5:13 PM,78.8,50.0,36,29.96,10.0,North,10.4,19.6,N/A,,Scattered Clouds,360,2013-06-29 22:13:00
5:33 PM,78.8,50.0,36,29.96,10.0,North,13.8,18.4,N/A,,Scattered Clouds,360,2013-06-29 22:33:00
5:54 PM,78.8,50.0,36,29.95,10.0,North,11.5,-,N/A,,Clear,10,2013-06-29 22:54:00
6:14 PM,77.0,50.0,39,29.95,10.0,North,11.5,18.4,N/A,,Scattered Clouds,360,2013-06-29 23:14:00
6:33 PM,78.8,50.0,36,29.95,10.0,North,13.8,20.7,N/A,,Scattered Clouds,360,2013-06-29 23:33:00
6:54 PM,78.8,50.0,36,29.95,10.0,North,13.8,19.6,N/A,,Scattered Clouds,10,2013-06-29 23:54:00
7:13 PM,78.8,50.0,36,29.96,10.0,North,11.5,17.3,N/A,,Scattered Clouds,360,2013-06-30 00:13:00
7:33 PM,77.0,51.8,41,29.96,10.0,NNE,10.4,17.3,N/A,,Mostly Cloudy,20,2013-06-30 00:33:00
7:54 PM,75.2,50.0,41,29.97,10.0,North,6.9,-,N/A,,Scattered Clouds,10,2013-06-30 00:54:00
8:13 PM,73.4,51.8,47,29.97,10.0,NNE,6.9,-,N/A,,Clear,20,2013-06-30 01:13:00
8:33 PM,73.4,51.8,47,29.97,10.0,NNE,6.9,-,N/A,,Clear,20,2013-06-30 01:33:00
8:54 PM,71.6,51.8,50,29.97,10.0,NE,5.8,-,N/A,,Clear,40,2013-06-30 01:54:00
9:13 PM,71.6,51.8,50,29.97,10.0,NNE,4.6,-,N/A,,Clear,30,2013-06-30 02:13:00
9:34 PM,69.8,51.8,53,29.98,10.0,NNE,3.5,-,N/A,,Clear,30,2013-06-30 02:34:00
9:54 PM,69.8,51.8,53,29.99,10.0,NE,3.5,-,N/A,,Clear,40,2013-06-30 02:54:00
10:13 PM,68.0,51.8,56,29.99,10.0,Calm,Calm,-,N/A,,Clear,0,2013-06-30 03:13:00
10:34 PM,68.0,51.8,56,30.00,10.0,North,3.5,-,N/A,,Clear,360,2013-06-30 03:34:00
10:54 PM,68.0,51.8,56,30.00,10.0,NNE,3.5,-,N/A,,Clear,20,2013-06-30 03:54:00
11:13 PM,64.4,51.8,64,30.01,10.0,Calm,Calm,-,N/A,,Clear,0,2013-06-30 04:13:00
11:34 PM,64.4,51.8,64,30.01,10.0,Calm,Calm,-,N/A,,Clear,0,2013-06-30 04:34:00
11:54 PM,64.4,53.6,68,30.01,10.0,Calm,Calm,-,N/A,,Clear,0,2013-06-30 04:54:00